Frontier — WBB3569 — position and weather

sailwx.info

Track history (hours):
 
Tides and Currents Weather Stations Pressure Air Temp Water Temp Dewpoint Dewpoint Depression Visibility Wind Speed Wind Dir Waves Ship Positions

Frontier

Owner: NORDIC FISHERIES INC, NEW BEDFORD, MA. More information available from US FCC via Universal Licensing System and Coast Guard Vessel Documentation Center.

Last reported at 2014-Aug-31 14:06 UTC. Time now 2014-Oct-25 00:48 UTC.
Position N 41°17' W 070°45'.
Warning: this ship's position is 54 days out of date.

Length 28 m.

Type: Fishing. MMSI: 367131750.

Date/timePositionNaut miles runAvg speedWind from/ knotsBaromVisibWave heightAir tempDewpointWater temp
2014-Aug-31 14:06N 41°17' W 070°45'6 9.7
2014-Aug-31 13:30N 41°17' W 070°37'9 9.7
2014-Aug-31 12:33N 41°14' W 070°25'1010.1
2014-Aug-31 11:33N 41°10' W 070°13'1110.4
2014-Aug-31 10:31N 41°05' W 070°00'22 9.5
2014-Aug-31 08:15N 40°56' W 069°34'  
2014-Aug-28 02:29N 40°54' W 067°34'0 0.0
2014-Aug-27 09:20N 40°54' W 067°34'1 0.7
2014-Aug-27 07:18N 40°54' W 067°36'3 3.6
2014-Aug-27 06:30N 40°56' W 067°36'2 2.1
2014-Aug-27 05:20N 40°55' W 067°38'  
Track history (hours):
 
Tides and Currents Weather Stations Pressure Air Temp Water Temp Dewpoint Dewpoint Depression Visibility Wind Speed Wind Dir Waves Ship Positions

Frontier

Owner: NORDIC FISHERIES INC, NEW BEDFORD, MA. More information available from US FCC via Universal Licensing System and Coast Guard Vessel Documentation Center.

Last reported at 2014-Aug-31 14:06 UTC. Time now 2014-Oct-25 00:48 UTC.
Position N 41°17' W 070°45'.
Warning: this ship's position is 54 days out of date.

Length 28 m.

Type: Fishing. MMSI: 367131750.

Date/timePositionNaut miles runAvg speedWind from/ knotsBaromVisibWave heightAir tempDewpointWater temp
2014-Aug-31 14:06N 41°17' W 070°45'6 9.7
2014-Aug-31 13:30N 41°17' W 070°37'9 9.7
2014-Aug-31 12:33N 41°14' W 070°25'1010.1
2014-Aug-31 11:33N 41°10' W 070°13'1110.4
2014-Aug-31 10:31N 41°05' W 070°00'22 9.5
2014-Aug-31 08:15N 40°56' W 069°34'  
2014-Aug-28 02:29N 40°54' W 067°34'0 0.0
2014-Aug-27 09:20N 40°54' W 067°34'1 0.7
2014-Aug-27 07:18N 40°54' W 067°36'3 3.6
2014-Aug-27 06:30N 40°56' W 067°36'2 2.1
2014-Aug-27 05:20N 40°55' W 067°38'  

Dump ship's entire track history